• In Belgium
  • List of Countries
  • For 7 days
  • Water Temperature
  • Satellite Maps
  • Weather Map
  • Weather Widgets
  • user-avatar
    Login

    Hourly Weather Hrazdan

    Today, 23 November, Thursday

    Time Temperature Precipitation Wind Pressure Humidity
    00:00 -4°C° 0.1 mm 1 mps 605 mmHg 80%
    01:00 -4°C° 0 mm 1 mps 605 mmHg 79%
    02:00 -7°C° 0 mm 2 mps 605 mmHg 77%
    03:00 -7°C° 0 mm 2 mps 605 mmHg 75%
    04:00 -7°C° 0.1 mm 2 mps 605 mmHg 75%
    05:00 -7°C° 0.1 mm 2 mps 605 mmHg 75%
    06:00 -7°C° 0.1 mm 2 mps 606 mmHg 75%
    07:00 -6°C° 0 mm 2 mps 606 mmHg 74%
    08:00 -7°C° 0 mm 3 mps 606 mmHg 74%
    09:00 -5°C° 0 mm 3 mps 606 mmHg 67%
    10:00 -5°C° 0.1 mm 3 mps 606 mmHg 63%
    11:00 -4°C° 0.1 mm 4 mps 606 mmHg 59%
    12:00 -4°C° 0.1 mm 4 mps 606 mmHg 56%
    13:00 -4°C° 0.1 mm 4 mps 606 mmHg 56%
    14:00 -4°C° 0.1 mm 3 mps 606 mmHg 57%
    15:00 -4°C° 0.1 mm 3 mps 607 mmHg 58%
    16:00 -4°C° 0.1 mm 2 mps 607 mmHg 61%
    17:00 -5°C° 0.1 mm 2 mps 607 mmHg 65%
    18:00 -4°C° 0.1 mm 1 mps 607 mmHg 69%
    19:00 -4°C° 0.2 mm 1 mps 607 mmHg 72%
    20:00 -4°C° 0.2 mm 1 mps 607 mmHg 75%
    21:00 -4°C° 0.2 mm 1 mps 608 mmHg 78%
    22:00 -4°C° 0.2 mm 1 mps 608 mmHg 79%
    23:00 -6°C° 0.2 mm 1 mps 608 mmHg 80%

    Tomorrow, 24 November, Friday

    Time Temperature Precipitation Wind Pressure Humidity
    00:00 -6°C° 0.2 mm 1 mps 608 mmHg 82%
    01:00 -6°C° 0.1 mm 1 mps 608 mmHg 82%
    02:00 -6°C° 0.1 mm 1 mps 608 mmHg 83%
    03:00 -6°C° 0.1 mm 1 mps 608 mmHg 83%
    04:00 -7°C° 0.1 mm 1 mps 608 mmHg 83%
    05:00 -7°C° 0.1 mm 1 mps 608 mmHg 83%
    06:00 -7°C° 0.1 mm 1 mps 608 mmHg 83%
    07:00 -7°C° 0.1 mm 1 mps 608 mmHg 80%
    08:00 -7°C° 0.1 mm 1 mps 609 mmHg 77%
    09:00 -6°C° 0.1 mm 1 mps 609 mmHg 74%
    10:00 -6°C° 0 mm 1 mps 609 mmHg 69%
    11:00 -6°C° 0 mm 2 mps 609 mmHg 65%
    12:00 -5°C° 0 mm 2 mps 610 mmHg 60%
    13:00 -5°C° 0 mm 2 mps 609 mmHg 60%
    14:00 -5°C° 0 mm 2 mps 609 mmHg 60%
    15:00 -4°C° 0 mm 1 mps 609 mmHg 60%
    16:00 -6°C° 0 mm 1 mps 609 mmHg 63%
    17:00 -7°C° 0 mm 1 mps 609 mmHg 66%
    18:00 -8°C° 0 mm 1 mps 609 mmHg 69%
    19:00 -8°C° 0 mm 1 mps 609 mmHg 69%
    20:00 -8°C° 0 mm 1 mps 610 mmHg 69%
    21:00 -8°C° 0 mm 1 mps 610 mmHg 68%
    22:00 -8°C° 0 mm 1 mps 610 mmHg 68%
    23:00 -8°C° 0 mm 1 mps 610 mmHg 67%

    Day after tomorrow, 25 November, Saturday

    Time Temperature Precipitation Wind Pressure Humidity
    00:00 -10°C° 0 mm 2 mps 610 mmHg 67%
    01:00 -10°C° 0 mm 2 mps 610 mmHg 67%
    02:00 -10°C° 0 mm 2 mps 610 mmHg 67%
    03:00 -10°C° 0 mm 2 mps 610 mmHg 66%
    04:00 -10°C° 0 mm 2 mps 611 mmHg 67%
    05:00 -10°C° 0 mm 2 mps 611 mmHg 68%
    06:00 -10°C° 0 mm 2 mps 612 mmHg 69%
    07:00 -9°C° 0 mm 2 mps 612 mmHg 68%
    08:00 -8°C° 0 mm 2 mps 613 mmHg 66%
    09:00 -7°C° 0 mm 2 mps 614 mmHg 65%
    10:00 -7°C° 0 mm 2 mps 614 mmHg 62%
    11:00 -7°C° 0 mm 3 mps 614 mmHg 58%
    12:00 -6°C° 0 mm 3 mps 615 mmHg 54%
    13:00 -6°C° 0 mm 3 mps 615 mmHg 54%
    14:00 -5°C° 0 mm 2 mps 615 mmHg 54%
    15:00 -5°C° 0 mm 2 mps 614 mmHg 54%
    16:00 -7°C° 0 mm 2 mps 614 mmHg 57%
    17:00 -8°C° 0 mm 2 mps 614 mmHg 59%
    18:00 -9°C° 0 mm 2 mps 614 mmHg 62%
    19:00 -9°C° 0 mm 2 mps 615 mmHg 62%
    20:00 -9°C° 0 mm 2 mps 615 mmHg 61%
    21:00 -10°C° 0 mm 2 mps 615 mmHg 61%
    22:00 -10°C° 0 mm 2 mps 615 mmHg 61%
    23:00 -10°C° 0 mm 2 mps 615 mmHg 61%

    26 November, Sunday

    Time Temperature Precipitation Wind Pressure Humidity
    00:00 -10°C° 0 mm 2 mps 615 mmHg 60%
    01:00 -9°C° 0 mm 1 mps 615 mmHg 60%
    02:00 -9°C° 0 mm 1 mps 615 mmHg 60%
    03:00 -9°C° 0 mm 1 mps 615 mmHg 60%
    04:00 -9°C° 0 mm 1 mps 615 mmHg 60%
    05:00 -9°C° 0 mm 1 mps 614 mmHg 60%
    06:00 -9°C° 0 mm 1 mps 614 mmHg 60%
    07:00 -8°C° 0 mm 1 mps 615 mmHg 58%
    08:00 -6°C° 0 mm 1 mps 615 mmHg 56%
    09:00 -4°C° 0 mm 1 mps 616 mmHg 54%
    10:00 -3°C° 0 mm 1 mps 616 mmHg 51%
    11:00 -3°C° 0 mm 2 mps 616 mmHg 48%
    12:00 -2°C° 0 mm 2 mps 615 mmHg 45%
    13:00 -2°C° 0 mm 2 mps 615 mmHg 45%
    14:00 -2°C° 0 mm 2 mps 614 mmHg 45%
    15:00 0°C° 0 mm 1 mps 614 mmHg 46%
    16:00 -4°C° 0 mm 2 mps 614 mmHg 47%
    17:00 -5°C° 0 mm 2 mps 613 mmHg 48%
    18:00 -7°C° 0 mm 2 mps 613 mmHg 49%
    19:00 -7°C° 0 mm 2 mps 613 mmHg 47%
    20:00 -7°C° 0 mm 2 mps 613 mmHg 45%
    21:00 -7°C° 0 mm 2 mps 613 mmHg 43%
    22:00 -7°C° 0 mm 2 mps 613 mmHg 43%
    23:00 -8°C° 0 mm 2 mps 613 mmHg 42%

    27 November, Monday

    Time Temperature Precipitation Wind Pressure Humidity
    00:00 -8°C° 0 mm 2 mps 613 mmHg 42%
    01:00 -8°C° 0 mm 2 mps 612 mmHg 42%
    02:00 -8°C° 0 mm 2 mps 612 mmHg 42%
    03:00 -8°C° 0 mm 2 mps 612 mmHg 42%
    04:00 -8°C° 0 mm 2 mps 612 mmHg 42%
    05:00 -8°C° 0 mm 2 mps 612 mmHg 42%
    06:00 -8°C° 0 mm 2 mps 612 mmHg 42%
    07:00 -7°C° 0 mm 2 mps 612 mmHg 42%
    08:00 -5°C° 0 mm 2 mps 613 mmHg 41%
    09:00 -4°C° 0 mm 2 mps 613 mmHg 41%
    10:00 -3°C° 0 mm 2 mps 613 mmHg 40%
    11:00 -1°C° 0 mm 2 mps 613 mmHg 39%
    12:00 +1°C° 0 mm 2 mps 613 mmHg 38%
    13:00 +1°C° 0 mm 2 mps 613 mmHg 38%
    14:00 +1°C° 0 mm 2 mps 612 mmHg 38%
    15:00 +1°C° 0 mm 2 mps 612 mmHg 38%
    16:00 -2°C° 0 mm 2 mps 612 mmHg 39%
    17:00 -4°C° 0 mm 2 mps 611 mmHg 40%
    18:00 -5°C° 0 mm 2 mps 611 mmHg 41%
    19:00 -5°C° 0 mm 2 mps 611 mmHg 41%
    20:00 -5°C° 0 mm 2 mps 611 mmHg 41%
    21:00 -6°C° 0 mm 2 mps 611 mmHg 41%
    22:00 -6°C° 0 mm 2 mps 611 mmHg 42%
    23:00 -6°C° 0 mm 2 mps 611 mmHg 43%

    28 November, Tuesday

    Time Temperature Precipitation Wind Pressure Humidity
    00:00 -6°C° 0 mm 2 mps 611 mmHg 44%
    01:00 -6°C° 0 mm 2 mps 610 mmHg 46%
    02:00 -6°C° 0 mm 2 mps 610 mmHg 47%
    03:00 -6°C° 0 mm 2 mps 610 mmHg 49%
    04:00 -6°C° 0 mm 2 mps 610 mmHg 50%
    05:00 -6°C° 0 mm 2 mps 610 mmHg 51%
    06:00 -6°C° 0 mm 2 mps 610 mmHg 52%
    07:00 -5°C° 0 mm 2 mps 610 mmHg 52%
    08:00 -4°C° 0 mm 2 mps 611 mmHg 52%
    09:00 -3°C° 0 mm 2 mps 611 mmHg 52%
    10:00 -2°C° 0 mm 2 mps 611 mmHg 52%
    11:00 +1°C° 0 mm 2 mps 611 mmHg 51%
    12:00 +2°C° 0 mm 2 mps 611 mmHg 51%
    13:00 +2°C° 0 mm 2 mps 611 mmHg 52%
    14:00 +2°C° 0 mm 2 mps 611 mmHg 53%
    15:00 +1°C° 0 mm 2 mps 610 mmHg 54%
    16:00 -1°C° 0 mm 2 mps 610 mmHg 56%
    17:00 -2°C° 0 mm 2 mps 610 mmHg 59%
    18:00 -4°C° 0 mm 2 mps 610 mmHg 62%
    19:00 -4°C° 0 mm 2 mps 610 mmHg 63%
    20:00 -4°C° 0 mm 2 mps 610 mmHg 64%
    21:00 -4°C° 0 mm 2 mps 611 mmHg 65%
    22:00 -4°C° 0 mm 2 mps 611 mmHg 66%
    23:00 -4°C° 0 mm 2 mps 611 mmHg 67%
    Show more